Location: Proctor
(47.8934°N, 114.3048°W)
Time: 02:53:30
(UTC+00:00)

AO-109 - Pass Details

Date: 07 July 2022
Orbit: 469 x 506 km, 60.7° (Epoch: 11 August)

Event Time Altitude Azimuth Distance (km) Brightness Sun altitude
Exits shadow 09:40:02 26° 182° (S) 969 ? -14.7°
Maximum altitude 09:41:37 42° 128° (SE) 694 ? -14.6°
Drops below altitude 10° 09:45:10 10° 57° (ENE) 1,673 ? -14.3°
Sets 09:47:24 0° 50° (NE) 2,565 ? -14.1°
